{"data":{"norad_id":59964,"epoch":"2026-05-25T02:17:21.071328Z","epoch_age_seconds":69982,"freshness":"FRESH","line1":"1 59964U 24107V   26145.09538277  .00000384  00000+0  25080-4 0  9999","line2":"2 59964  53.1608  70.6901 0001333  93.6994 266.4160 15.30194497111440","mean_motion":15.30194497,"eccentricity":0.0001333,"inclination_deg":53.1608,"raan_deg":70.6901,"arg_perigee_deg":93.6994,"mean_anomaly_deg":266.416,"bstar":2.508e-5,"rev_number":11144,"period_min":94.105684135133,"perigee_km":474.31794641354,"apogee_km":476.14505445575,"semimajor_km":6853.3685004346,"source":"CELESTRAK","updated_at":"2026-05-25T13:38:19.130513Z"}}